Directory Listing
Index of /dewikibooks/20260301/

Index of /dewikibooks/20260301/


../
dewikibooks-20260301-all-titles-in-ns0.gz          01-Mar-2026 12:58    299K
dewikibooks-20260301-all-titles.gz                 01-Mar-2026 12:58    528K
dewikibooks-20260301-babel.sql.gz                  01-Mar-2026 10:48    1917
dewikibooks-20260301-category.sql.gz               01-Mar-2026 10:47    9529
dewikibooks-20260301-categorylinks.sql.gz          01-Mar-2026 10:47    484K
dewikibooks-20260301-change_tag.sql.gz             01-Mar-2026 10:47      1M
dewikibooks-20260301-change_tag_def.sql.gz         01-Mar-2026 10:48    1419
dewikibooks-20260301-externallinks.sql.gz          01-Mar-2026 10:47      4M
dewikibooks-20260301-geo_tags.sql.gz               01-Mar-2026 10:47     885
dewikibooks-20260301-image.sql.gz                  01-Mar-2026 10:47      2M
dewikibooks-20260301-imagelinks.sql.gz             01-Mar-2026 10:47      2M
dewikibooks-20260301-iwlinks.sql.gz                01-Mar-2026 10:47      2M
dewikibooks-20260301-langlinks.sql.gz              01-Mar-2026 10:47    132K
dewikibooks-20260301-linktarget.sql.gz             01-Mar-2026 10:47      2M
dewikibooks-20260301-md5sums.json                  01-Mar-2026 13:45    3106
dewikibooks-20260301-md5sums.txt                   01-Mar-2026 13:45    2896
dewikibooks-20260301-page.sql.gz                   01-Mar-2026 10:47      2M
dewikibooks-20260301-page_props.sql.gz             01-Mar-2026 10:47    294K
dewikibooks-20260301-page_restrictions.sql.gz      01-Mar-2026 10:47    5802
dewikibooks-20260301-pagelinks.sql.gz              01-Mar-2026 10:47      2M
dewikibooks-20260301-pages-articles-multistream..> 01-Mar-2026 10:54    449K
dewikibooks-20260301-pages-articles-multistream..> 01-Mar-2026 10:54    103M
dewikibooks-20260301-pages-articles.xml.bz2        01-Mar-2026 10:51    102M
dewikibooks-20260301-pages-articles.xml.bz2.inprog 01-Mar-2026 10:50     28M
dewikibooks-20260301-pages-logging.xml.gz          01-Mar-2026 12:59     10M
dewikibooks-20260301-pages-meta-current.xml.bz2    01-Mar-2026 12:58    123M
dewikibooks-20260301-pages-meta-current.xml.bz2..> 01-Mar-2026 12:56      9M
dewikibooks-20260301-pages-meta-history.xml.7z     01-Mar-2026 13:45    304M
dewikibooks-20260301-pages-meta-history.xml.bz2    01-Mar-2026 13:39      1G
dewikibooks-20260301-protected_titles.sql.gz       01-Mar-2026 10:47    1774
dewikibooks-20260301-redirect.sql.gz               01-Mar-2026 10:47     34K
dewikibooks-20260301-runsettings.txt               01-Mar-2026 09:35      28
dewikibooks-20260301-sha1sums.json                 01-Mar-2026 13:45    3411
dewikibooks-20260301-sha1sums.txt                  01-Mar-2026 13:45    3200
dewikibooks-20260301-site_stats.sql.gz             01-Mar-2026 10:47     846
dewikibooks-20260301-siteinfo-namespaces.json.gz   01-Mar-2026 12:58    6578
dewikibooks-20260301-siteinfo2-namespacesv2.jso..> 01-Mar-2026 12:58    6833
dewikibooks-20260301-sites.sql.gz                  01-Mar-2026 10:48     23K
dewikibooks-20260301-stub-articles.xml.gz          01-Mar-2026 09:54      5M
dewikibooks-20260301-stub-meta-current.xml.gz      01-Mar-2026 09:54      8M
dewikibooks-20260301-stub-meta-history.xml.gz      01-Mar-2026 09:54     71M
dewikibooks-20260301-templatelinks.sql.gz          01-Mar-2026 10:47    501K
dewikibooks-20260301-user_former_groups.sql.gz     01-Mar-2026 10:47     929
dewikibooks-20260301-user_groups.sql.gz            01-Mar-2026 10:47     929
dewikibooks-20260301-wbc_entity_usage.sql.gz       01-Mar-2026 10:48     59K
dumpruninfo.json                                   01-Mar-2026 13:45    2562
dumpruninfo.txt                                    01-Mar-2026 13:45    2202
dumpspecialfiles.json                              01-Mar-2026 13:45     132
dumpstatus.json                                    01-Mar-2026 13:45     12K
md5sums-dewikibooks-20260301-all-titles-in-ns0...> 01-Mar-2026 12:58      76
md5sums-dewikibooks-20260301-all-titles.gz.txt     01-Mar-2026 12:58      69
md5sums-dewikibooks-20260301-babel.sql.gz.txt      01-Mar-2026 10:48      68
md5sums-dewikibooks-20260301-category.sql.gz.txt   01-Mar-2026 10:47      71
md5sums-dewikibooks-20260301-categorylinks.sql...> 01-Mar-2026 10:47      76
md5sums-dewikibooks-20260301-change_tag.sql.gz.txt 01-Mar-2026 10:48      73
md5sums-dewikibooks-20260301-change_tag_def.sql..> 01-Mar-2026 10:48      77
md5sums-dewikibooks-20260301-externallinks.sql...> 01-Mar-2026 10:47      76
md5sums-dewikibooks-20260301-geo_tags.sql.gz.txt   01-Mar-2026 10:47      71
md5sums-dewikibooks-20260301-image.sql.gz.txt      01-Mar-2026 10:47      68
md5sums-dewikibooks-20260301-imagelinks.sql.gz.txt 01-Mar-2026 10:47      73
md5sums-dewikibooks-20260301-iwlinks.sql.gz.txt    01-Mar-2026 10:47      70
md5sums-dewikibooks-20260301-langlinks.sql.gz.txt  01-Mar-2026 10:47      72
md5sums-dewikibooks-20260301-linktarget.sql.gz.txt 01-Mar-2026 10:47      73
md5sums-dewikibooks-20260301-page.sql.gz.txt       01-Mar-2026 10:47      67
md5sums-dewikibooks-20260301-page_props.sql.gz.txt 01-Mar-2026 10:47      73
md5sums-dewikibooks-20260301-page_restrictions...> 01-Mar-2026 10:47      80
md5sums-dewikibooks-20260301-pagelinks.sql.gz.txt  01-Mar-2026 10:47      72
md5sums-dewikibooks-20260301-pages-articles-mul..> 01-Mar-2026 10:54      96
md5sums-dewikibooks-20260301-pages-articles-mul..> 01-Mar-2026 10:54      90
md5sums-dewikibooks-20260301-pages-articles.xml..> 01-Mar-2026 10:51      78
md5sums-dewikibooks-20260301-pages-logging.xml...> 01-Mar-2026 12:59      76
md5sums-dewikibooks-20260301-pages-meta-current..> 01-Mar-2026 12:58      82
md5sums-dewikibooks-20260301-pages-meta-history..> 01-Mar-2026 13:45      81
md5sums-dewikibooks-20260301-pages-meta-history..> 01-Mar-2026 13:39      82
md5sums-dewikibooks-20260301-protected_titles.s..> 01-Mar-2026 10:47      79
md5sums-dewikibooks-20260301-redirect.sql.gz.txt   01-Mar-2026 10:47      71
md5sums-dewikibooks-20260301-site_stats.sql.gz.txt 01-Mar-2026 10:47      73
md5sums-dewikibooks-20260301-siteinfo-namespace..> 01-Mar-2026 12:58      83
md5sums-dewikibooks-20260301-siteinfo2-namespac..> 01-Mar-2026 12:58      86
md5sums-dewikibooks-20260301-sites.sql.gz.txt      01-Mar-2026 10:48      68
md5sums-dewikibooks-20260301-stub-articles.xml...> 01-Mar-2026 09:54      76
md5sums-dewikibooks-20260301-stub-meta-current...> 01-Mar-2026 09:54      80
md5sums-dewikibooks-20260301-stub-meta-history...> 01-Mar-2026 09:54      80
md5sums-dewikibooks-20260301-templatelinks.sql...> 01-Mar-2026 10:47      76
md5sums-dewikibooks-20260301-user_former_groups..> 01-Mar-2026 10:47      81
md5sums-dewikibooks-20260301-user_groups.sql.gz..> 01-Mar-2026 10:47      74
md5sums-dewikibooks-20260301-wbc_entity_usage.s..> 01-Mar-2026 10:48      79
report.json                                        01-Mar-2026 13:45    6350
sha1sums-dewikibooks-20260301-all-titles-in-ns0..> 01-Mar-2026 12:58      84
sha1sums-dewikibooks-20260301-all-titles.gz.txt    01-Mar-2026 12:58      77
sha1sums-dewikibooks-20260301-babel.sql.gz.txt     01-Mar-2026 10:48      76
sha1sums-dewikibooks-20260301-category.sql.gz.txt  01-Mar-2026 10:47      79
sha1sums-dewikibooks-20260301-categorylinks.sql..> 01-Mar-2026 10:47      84
sha1sums-dewikibooks-20260301-change_tag.sql.gz..> 01-Mar-2026 10:48      81
sha1sums-dewikibooks-20260301-change_tag_def.sq..> 01-Mar-2026 10:48      85
sha1sums-dewikibooks-20260301-externallinks.sql..> 01-Mar-2026 10:47      84
sha1sums-dewikibooks-20260301-geo_tags.sql.gz.txt  01-Mar-2026 10:47      79
sha1sums-dewikibooks-20260301-image.sql.gz.txt     01-Mar-2026 10:47      76
sha1sums-dewikibooks-20260301-imagelinks.sql.gz..> 01-Mar-2026 10:47      81
sha1sums-dewikibooks-20260301-iwlinks.sql.gz.txt   01-Mar-2026 10:47      78
sha1sums-dewikibooks-20260301-langlinks.sql.gz.txt 01-Mar-2026 10:47      80
sha1sums-dewikibooks-20260301-linktarget.sql.gz..> 01-Mar-2026 10:47      81
sha1sums-dewikibooks-20260301-page.sql.gz.txt      01-Mar-2026 10:47      75
sha1sums-dewikibooks-20260301-page_props.sql.gz..> 01-Mar-2026 10:47      81
sha1sums-dewikibooks-20260301-page_restrictions..> 01-Mar-2026 10:47      88
sha1sums-dewikibooks-20260301-pagelinks.sql.gz.txt 01-Mar-2026 10:47      80
sha1sums-dewikibooks-20260301-pages-articles-mu..> 01-Mar-2026 10:54     104
sha1sums-dewikibooks-20260301-pages-articles-mu..> 01-Mar-2026 10:54      98
sha1sums-dewikibooks-20260301-pages-articles.xm..> 01-Mar-2026 10:51      86
sha1sums-dewikibooks-20260301-pages-logging.xml..> 01-Mar-2026 12:59      84
sha1sums-dewikibooks-20260301-pages-meta-curren..> 01-Mar-2026 12:58      90
sha1sums-dewikibooks-20260301-pages-meta-histor..> 01-Mar-2026 13:45      89
sha1sums-dewikibooks-20260301-pages-meta-histor..> 01-Mar-2026 13:39      90
sha1sums-dewikibooks-20260301-protected_titles...> 01-Mar-2026 10:47      87
sha1sums-dewikibooks-20260301-redirect.sql.gz.txt  01-Mar-2026 10:47      79
sha1sums-dewikibooks-20260301-site_stats.sql.gz..> 01-Mar-2026 10:47      81
sha1sums-dewikibooks-20260301-siteinfo-namespac..> 01-Mar-2026 12:58      91
sha1sums-dewikibooks-20260301-siteinfo2-namespa..> 01-Mar-2026 12:58      94
sha1sums-dewikibooks-20260301-sites.sql.gz.txt     01-Mar-2026 10:48      76
sha1sums-dewikibooks-20260301-stub-articles.xml..> 01-Mar-2026 09:54      84
sha1sums-dewikibooks-20260301-stub-meta-current..> 01-Mar-2026 09:54      88
sha1sums-dewikibooks-20260301-stub-meta-history..> 01-Mar-2026 09:54      88
sha1sums-dewikibooks-20260301-templatelinks.sql..> 01-Mar-2026 10:47      84
sha1sums-dewikibooks-20260301-user_former_group..> 01-Mar-2026 10:47      89
sha1sums-dewikibooks-20260301-user_groups.sql.g..> 01-Mar-2026 10:47      82
sha1sums-dewikibooks-20260301-wbc_entity_usage...> 01-Mar-2026 10:48      87
status.html                                        01-Mar-2026 13:45     117
tableinfo.json                                     01-Mar-2026 09:28    1540